Regional Weather Roundup
Issued by NWS

Home | Current Version | Previous Version | Text Only | Print | Product List | Glossary On
Versions: 1 2 3 4 5 6 7 8 9 10 11 12 13 14 15 16 17 18 19 20 21 22 23 24 25 26 27 28 29 30 31 32 33 34 35 36 37 38 39 40 41 42 43 44 45 46 47 48 49 50
000
ASUS43 KDTX 260710
RWRMI
MICHIGAN HOURLY REGIONAL WEATHER ROUNDUP
NATIONAL WEATHER SERVICE DETROIT/PONTIAC MI
300 AM EDT TUE SEP 26 2017

NOTE: "FAIR" INDICATES FEW OR NO CLOUDS BELOW 12,000 FEET WITH NO
SIGNIFICANT WEATHER AND/OR OBSTRUCTION TO VISIBILITY.

MIZ047>049-052>055-059>063-066>070-074>076-081>083-260800-
SOUTHEAST LOWER MICHIGAN

CITY           SKY/WX    TMP DP  RH WIND       PRES   REMARKS
ADRIAN         CLOUDY    65  61  87 CALM      30.00S
ALMA           CLEAR     60  57  90 CALM      29.98S
ANN ARBOR      MOCLDY    64  63  96 CALM      29.99S
BAD AXE        CLEAR     67  62  83 CALM      30.00S
CARO           CLEAR     63  61  94 CALM      29.98F FOG
DETROIT CITY   CLOUDY    71  67  87 CALM      29.99S
DETROIT        CLOUDY    73  68  84 CALM      29.99S
FLINT          CLEAR     67  62  84 CALM      29.99F
GROSSE ILE     CLOUDY    72  68  89 CALM      29.97F
HILLSDALE      CLOUDY    63  59  88 CALM      30.00S
HOWELL         CLEAR     67  62  85 CALM      30.00S

CITY           SKY/WX    TMP DP  RH WIND       PRES   REMARKS
JACKSON        CLEAR     65  61  87 CALM      30.00S
LAMBERTVILLE   CLOUDY    69  66  90 CALM      29.98S
LANSING        CLEAR     68  60  75 CALM      30.00S
LAPEER         FAIR      63  62  96 CALM      30.00F
MASON          CLEAR     66  63  89 CALM      30.00S
MONROE         MOCLDY    70  67  91 CALM      29.98S
MT. CLEMENS    CLOUDY    69  69 100 CALM      29.98S
PONTIAC        PTCLDY    67  65  93 CALM      29.99F
PORT HOPE        N/A     73  64  73 SW6       29.97S
PORT HURON     FOG       64  63  94 CALM      30.00S VSB 1/4
TRI CITIES     CLEAR     71  64  78 S7        29.98S
MIDLAND        FOG       63  63 100 CALM      29.97S VSB 1/4
TROY           CLOUDY    73  65  77 CALM      30.01F
SAGINAW HB     CLEAR     68  61  77 S3        29.97F
$$
MIZ043>046-050>051-056>058-064>065-071>073-077>080-260800-
SOUTHWEST LOWER MICHIGAN

CITY           SKY/WX    TMP DP  RH WIND       PRES   REMARKS
BATTLE CREEK   CLEAR     67  60  78 CALM      29.99F
BENTON HARBOR  CLEAR     62  58  86 CALM      29.96S
BIG RAPIDS     CLEAR     58  54  89 CALM      29.99R
COLDWATER      CLEAR     63  63 100 CALM      29.99S
FREMONT        FAIR      62  58  87 E3        29.96F
HOLLAND        CLEAR     62  58  86 CALM      29.97S
GRAND RAPIDS   CLEAR     63  60  90 CALM      29.97S
IONIA          FAIR      62  56  83 S3        29.98S
KALAMAZOO      CLEAR     64  58  80 CALM      29.99R
LUDINGTON      CLEAR     59  57  94 CALM      29.95S
MARSHALL       CLEAR     64  63  97 CALM      29.99S
MOUNT PLEASANT CLEAR     64  63  96 CALM      29.97F
MUSKEGON       CLEAR     64  58  80 CALM      29.96S
SOUTH HAVEN    CLEAR     63  59  86 CALM      29.96S
$$
MIZ016>042-260800-
NORTHERN LOWER MICHIGAN

CITY           SKY/WX    TMP DP  RH WIND       PRES   REMARKS
ALPENA         CLEAR     62  61  96 CALM      29.97F FOG
BEAVER ISLAND  CLEAR     59  59 100 CALM      29.96S FOG
BELLAIRE       CLEAR     59  57  95 CALM      29.97S FOG
CADILLAC       CLEAR     58  53  82 CALM      29.99F
CHARLEVOIX     CLEAR     65  63  93 CALM      29.99S
FRANKFORT      CLEAR     60  59  94 CALM      29.95S
GAYLORD        CLEAR     60  55  83 CALM      30.00S
GRAYLING       PTCLDY    55  53  92 CALM      30.00S
HARBOR SPRINGS CLEAR     62  61  95 CALM      29.96S
HOUGHTON LAKE  PTCLDY    58  57  97 CALM      30.00S FOG
MANISTEE       CLEAR     60  58  92 E6        29.95S
OSCODA         CLEAR     65  64  97 CALM      29.97S FOG
PELLSTON       CLEAR     57  56  96 CALM      29.97S
ROGERS CITY    CLEAR     69  64  84 SW7       29.97S
TRAVERSE CITY  CLEAR     65  59  81 S3        29.94S
$$
MIZ007>008-015-260800-
EASTERN UPPER MICHIGAN

CITY           SKY/WX    TMP DP  RH WIND       PRES   REMARKS
KINROSS        CLEAR     63  63 100 W3        29.96F FOG
MACKINAC ISLAN FOG       66  66 100 CALM      29.96S VSB 1/4
NEWBERRY       CLEAR     59  58  97 CALM      29.96S FOG
S. S. MARIE    CLEAR     66  63  90 E3        29.95F
MUNISING         N/A     62  62 100 CALM      29.95F
$$
MIZ004>006-011>014-085-260800-
CENTRAL UPPER MICHIGAN

CITY           SKY/WX    TMP DP  RH WIND       PRES   REMARKS
MANISTIQUE       N/A     60  54  81 CALM      29.95S HAZE
MENOMINEE      CLEAR     66  62  87 NE3       29.94R
SAWYER-GWINN   LGT RAIN  57  56  97 E3        29.98F
$$
MIZ001>003-009>011-084-260800-
WESTERN UPPER MICHIGAN

CITY           SKY/WX    TMP DP  RH WIND       PRES   REMARKS
IRON MOUNTAIN  CLOUDY    65  63  93 SE5       29.94F FOG
HOUGHTON       CLOUDY    56  54  93 N5        29.97F
COPPER HARBOR    N/A     58  56  93 E9        29.98S
IRONWOOD       FOG       56  56 100 NE5       29.97R VSB 1/2
$$

ABBREVIATIONS USED IN REMARKS
   TC - TEMPERATURE IN CELSIUS
  WCI - WIND CHILL INDEX
   HX - HEAT INDEX
  VSB - VISIBILITY




USA.gov is the U.S. government's official web portal to all federal, state and local government web resources and services.